Regional Weather Roundup
Issued by NWS Wakefield, VA

Home | Current Version | Previous Version | Graphics & Text | Print | Product List | Glossary On
Versions: 1 2 3 4 5 6 7 8 9 10 11 12 13 14 15 16 17 18 19 20 21 22 23 24 25 26 27 28 29 30 31 32 33 34 35 36 37 38 39 40 41 42 43 44 45 46 47 48 49 50
000
ASUS41 KAKQ 151810
RWRAKQ

REGIONAL WEATHER ROUNDUP
NATIONAL WEATHER SERVICE WAKEFIELD VA
200 PM EDT MON SEP 15 2014

Note: "fair" indicates few or no clouds below 12,000 feet with no
significant weather and/or obstructions to visibility. * = Denotes
station may not report precipitation (e.g., rain,snow,etc.),
thunder or fog.

VAZ042-051-052>054-056-151900-
NORTHERN VIRGINIA

CITY           SKY/WX    TMP DP  RH WIND       PRES   REMARKS
WASH NATIONAL  PTSUNNY   73  47  39 CALM      30.19F
DULLES         PTSUNNY   71  51  49 CALM      30.19F
FORT BELVOIR   MOSUNNY   73  53  50 VRB3      30.19F
QUANTICO       MOSUNNY   72  53  51 S3        30.19F
FREDERICKSBRG* PTSUNNY   76  54  46 S6        30.17F
STAFFORD*      SUNNY     72  55  54 CALM      30.22F
WARRENTON      SUNNY     76  58  52 W3        30.18F
CULPEPER*      SUNNY    N/A N/A N/A CALM      30.18F
MANASSAS*      SUNNY     73  54  49 S5        30.19F
LEESBURG*      SUNNY     72  54  53 SW3       30.20F
WINCHESTER     MOSUNNY   72  50  46 E7        30.18F
FRONT ROYAL*   PTCLDY    72  52  49 CALM      30.17F
LURAY*         MOCLDY    75  54  46 SE6       30.17F
$$

VAZ048-049-060>072-079>083-151900-
CENTRAL AND SOUTH CENTRAL VIRGINIA...AND NORTH CENTRAL NORTH CAROLINA

CITY           SKY/WX    TMP DP  RH WIND       PRES   REMARKS
RICHMOND       CLOUDY    78  55  44 SE7       30.17F
CHESTERFIELD*  MOCLDY    75  52  43 S6        30.19F
PETERSBURG*    CLOUDY    72  56  56 SE5       30.19F
HANOVER        MOSUNNY   76  55  48 VRB3      30.19F
TAPPAHANNOCK*  PTSUNNY   76  53  44 CALM      30.19F
CHARLOTTSVILLE MOSUNNY   72  54  53 CALM      30.18F
ORANGE*        PTSUNNY   73  52  46 SE8       30.19F
LOUISA*        MOSUNNY   72  57  60 CALM      30.17F
FARMVILLE*     CLOUDY    73  57  56 S5        30.17F
CREWE*         CLOUDY    74  60  60 SW5       30.19F
FORT PICKETT*  MOCLDY    71  59  65 SE5       30.19F
LUNENBURG*     CLOUDY    72  60  66 CALM      30.18F
SOUTH HILL*    CLOUDY    73  61  64 S3        30.24F
LAWRENCEVILLE* CLOUDY    71  60  67 CALM      30.19F
ROANOKE RAPIDS CLOUDY    72  59  64 CALM      30.19F
RALEIGH        PTSUNNY   73  61  65 VRB3      30.19F
$$

VAZ088>098-151900-
SOUTHEAST VIRGINIA

CITY           SKY/WX    TMP DP  RH WIND       PRES   REMARKS
NORFOLK        CLOUDY    72  58  61 E6        30.19F
VIRGINIA BEACH CLOUDY    71  58  63 E7        30.18F
NORFOLK NAVAL  PTSUNNY   74  59  59 E6        30.20F
WEST POINT*    NOT AVBL
NEWPORT NEWS   CLOUDY    75  60  59 E6        30.19F
LANGLEY AFB    CLOUDY    73  59  62 SE6       30.18F
FORT EUSTIS    CLOUDY    73  55  53 SW5       30.17F
WILLIAMSBURG*  PTSUNNY   79  61  53 S3        30.19F
HR EXEC AP*    CLOUDY    72  61  68 CALM      30.21F
FRANKLIN*        N/A     75  59  57 CALM      30.18F
WAKEFIELD      CLOUDY    73  59  61 SE3       30.19F
$$

VAZ020-022-025-037-045-151900-
WEST CENTRAL AND SOUTHWEST VIRGINIA

CITY           SKY/WX    TMP DP  RH WIND       PRES   REMARKS
STAUNTON*      MOSUNNY   73  52  47 S7G17     30.20F
HOT SPRINGS VA NOT AVBL
LYNCHBURG      CLOUDY    71  60  68 S7        30.20F
DANVILLE       PTSUNNY   75  62  64 SW6       30.18F
SOUTH BOSTON*  NOT AVBL
MARTINSVILLE   CLOUDY    77  63  61 SE5       30.20F
ROANOKE        PTSUNNY   74  61  63 SE9       30.20F
BLACKSBURG     PTSUNNY   72  63  73 CALM      30.22F
DUBLIN*        PTSUNNY   74  63  67 S3        30.21F
MARION*        PTSUNNY   73  62  69 SW8       30.23F
HILLSVILLE*    MOSUNNY   69  62  79 S6        30.23F
RICHLANDS*     CLOUDY    74  61  64 SW8       30.21F
WISE*          CLOUDY    72  57  60 W9        30.22F
ABINGDON*      CLOUDY    74  64  70 W10       30.20F
$$

MDZ021>025-VAZ099-100-151900-
SOUTHERN MARYLAND AND THE DELMARVA PENINSULA

CITY           SKY/WX    TMP DP  RH WIND       PRES   REMARKS
PATUXENT RIVER PTSUNNY   70  53  54 E8        30.19F
BAY BRIDGE APT   N/A     70  46  43 NW6       30.20F
LEONARDTOWN    MOSUNNY   70  54  56 E6        30.20F
DOVER          SUNNY     71  51  49 E8        30.17F
GEORGETOWN     SUNNY     73  48  41 E13       30.18F
EASTON         MOSUNNY   73  52  46 NW8       30.23F
CAMBRIDGE      SUNNY     72  48  43 NW3       30.19F
SALISBURY      MOSUNNY   75  51  43 CALM      30.18F
OCEAN CITY     SUNNY     73  50  44 VRB6      30.18F
WALLOPS ISLAND MOSUNNY   73  54  51 VRB5      30.19F
ACCOMACK*      CLOUDY    70  52  52 SE3       30.18F
$$

NCZ012>017-030>032-151900-
EASTERN NORTH CAROLINA

CITY           SKY/WX    TMP DP  RH WIND       PRES   REMARKS
ELIZABETH CITY CLOUDY    74  61  63 NE7       30.18F
AHOSKIE*       PTSUNNY   72  59  65 CALM      30.19F
EDENTON*       CLOUDY    74  64  68 SE7       30.18F
CURRITUCK*     CLOUDY    73  58  59 E3        30.19F
KILL DEVIL HLS SUNNY     74  60  60 E6        30.17F
MANTEO         SUNNY     73  61  65 NE10      30.18F
CAPE HATTERAS  CLOUDY    74  63  68 NE9       30.17F
TARBORO*       PTCLDY    77  62  59 CALM      30.19F
GOLDSBORO      PTSUNNY   73  67  81 VRB6      30.17F
WASHINGTON     PTSUNNY   72  62  69 E5        30.19F
GREENVILLE     PTSUNNY   73  61  64 E3        30.20F
NEW BERN       CLOUDY    75  63  66 E3        30.19F
WILMINGTON     CLOUDY    76  65  68 E7        30.18F
$$

VAZ048-151900-
ELSEWHERE

CITY           SKY/WX    TMP DP  RH WIND       PRES   REMARKS
HARRISBURG PA  MOSUNNY   71  45  39 VRB3      30.18F
BALTIMORE      MOSUNNY   70  52  52 S8        30.19F
ANNAPOLIS      SUNNY     69  53  56 SE8       30.19F
ANDREWS AFB    PTSUNNY   71  53  53 VRB1      30.18F
WILMINGTON DE  MOSUNNY   69  48  47 VRB5      30.20F
PHILADELPHIA   MOSUNNY   70  44  39 VRB3      30.19F
WILDWOOD NJ*   SUNNY     70  46  43 NW7       30.20F
ATLANTIC CITY  PTSUNNY   70  49  47 VRB5      30.18F
HENDERSON NC   CLOUDY    73  59  62 SE5       30.19F
GREENSBORO     CLOUDY    74  63  68 S5        30.19F
ROCKY MOUNT    PTSUNNY   75  62  64 VRB5      30.19F
FAYETTEVILLE   CLOUDY    74  65  73 NE6       30.19F
CHARLOTTE      CLOUDY    73  63  70 SW3       30.20F
$$

VAZ100-151900-
MARINE

STATION/POSITION TIME  TEMP    WIND        PRES    WAVE   SWELL
                       AIR SEA DIR/SP/G            HT/PER HT/PER
                 (UTC) (F)     (DEG/KT/KT) (MB)    (FT/S) (FT/S)
44066 TX TWR #4  1800   67 75   30/  2/  4 1021.4F   2/ 7   2/ 7
CAPE MAY NJ      1800   69 75   CALM  /  4 1021.8F
LEWES DE         1800   66 72   20/  8/  9 1022.1F
15NM E FENWICK I 1800   66 72              1021.8F   2/ 3
OCEAN-CITY-INLET 1800   70 71   80/  6/ 10 1021.7F
WACHAPREAGUE VA  1800   69 73  100/  6/  7 1022.5F
THOMAS POINT MD  1800   67 75   90/  2/  3 1023.3F
GOOSES REEF MD   1800   67     100/  4/  8 1022.9F
COVE POINT MD    1800   67     150/  4/  6 1022.3F
SOLOMONS ISLAND  1800      77                N/A
BISHOPS HEAD MD  1800   67 71  120/  4/  5 1022.1F
PINEY POINT MD   1800          160/  7/  8   N/A
POTOMAC MD       1800   68     120/  6/  8 1021.8S
CAMBRIDGE MD     1800   68 75   30/  4/  5 1022.1F
LEWISETTA VA     1800   68 74  100/ 10/ 11 1021.9S
RAPPAHANNOCK LGT 1800           10/  2/  3 1022.8F
STINGRAY PT      1800   69     110/  6/  8   N/A
YORK RVR RNG VA  1800   71     150/  5/  6 1021.9S
YORKTOWN VA      1800   71 77  150/  5/  7 1022.0S
JAMESTOWN VA     1800   70     190/  6/  8   N/A
DOMINION TERM VA 1800   72     110/  3/  6 1022.3F
KIPTOPEKE VA     1800      79  100/  6/  8   N/A
CHES BAY BRIDGE  1800   70 76   60/  7/  8 1021.8F
CAPE HENRY VA    1800   70      70/  7/ 10 1021.2S
CHESAPEAKE LGHT  1700   68      50/  8/ 10 1023.4F
WILLOUBY STN VA  1800   70      80/  7/  8 1021.0F
S CRANEY ISL VA  1800           20/  6/  7 1021.9F
CAPE HENRY BUOY  1800      76                N/A     2/13
1ST LANDING BUOY 1800   71      80/  8/ 10 1022.0S
CAPE CHARLES BUO 1800      75                N/A     2/ 6   2/ 6
OFFSHORE WE BUOY 1700      75                N/A     2/ 6   2/ 6
64NM E OF VA BCH 1800   70 80   20/  8/ 12 1021.8F   3/ 8   2/ 8
DUCK PIER NC     1800   70 76   50/  9/ 11 1021.5S
44100 DUCK FRF   1800      75                N/A     3/ 6
44056 DUCK FRF   1800                        N/A     2/ 6
OREGON INLET NC  1800   73 74   40/ 10/ 12 1021.9S
HATTERAS NC      1800   74 76   40/  8/ 12 1022.1F
DIAMOND SHLS NC  1800   74      10/ 12/ 16 1021.1F   4/ 7   3/ 7
CAPE LOOKOUT NC  1800   75      40/ 11/ 12 1021.4F
$$


USA.gov is the U.S. government's official web portal to all federal, state and local government web resources and services.